Time,TemperatureF,DewpointF,PressureIn,WindDirection,WindDirectionDegrees,WindSpeedMPH,WindSpeedGustMPH,Humidity,HourlyPrecipIn,Conditions,Clouds,dailyrainin,SoftwareType,DateUTC
2013-06-18 00:02:00,58.0,52.0,30.00,NE,55,7.0,14.0,81,0.00,,,0.00,,2013-06-18 05:02:00,
2013-06-18 00:12:00,57.0,51.0,30.00,NE,42,10.0,16.0,81,0.00,,,0.00,,2013-06-18 05:12:00,
2013-06-18 00:22:00,57.0,51.0,30.00,NE,42,10.0,16.0,81,0.00,,,0.00,,2013-06-18 05:22:00,
2013-06-18 00:34:00,57.0,51.0,30.00,NE,34,8.0,16.0,81,0.00,,,0.00,,2013-06-18 05:34:00,
2013-06-18 00:43:00,57.0,52.0,30.01,NE,46,7.0,12.0,82,0.00,,,0.00,,2013-06-18 05:43:00,
2013-06-18 00:53:00,57.0,52.0,30.01,NE,46,7.0,12.0,82,0.00,,,0.00,,2013-06-18 05:53:00,
2013-06-18 01:02:00,56.0,51.0,30.01,NNE,31,8.0,14.0,82,0.00,,,0.00,,2013-06-18 06:02:00,
2013-06-18 01:11:00,56.0,51.0,30.01,NE,51,8.0,12.0,83,0.00,,,0.00,,2013-06-18 06:11:00,
2013-06-18 01:23:00,56.0,51.0,30.01,NE,51,8.0,12.0,83,0.00,,,0.00,,2013-06-18 06:23:00,
2013-06-18 01:32:00,55.0,50.0,30.01,NE,40,7.0,12.0,84,0.00,,,0.00,,2013-06-18 06:32:00,
2013-06-18 01:43:00,55.0,51.0,30.01,ENE,68,7.0,11.0,85,0.00,,,0.00,,2013-06-18 06:43:00,
2013-06-18 01:52:00,55.0,51.0,30.01,ENE,68,7.0,11.0,85,0.00,,,0.00,,2013-06-18 06:52:00,
2013-06-18 02:02:00,56.0,52.0,30.02,NE,39,6.0,14.0,85,0.00,,,0.00,,2013-06-18 07:02:00,
2013-06-18 02:12:00,56.0,52.0,30.01,ENE,59,8.0,14.0,85,0.00,,,0.00,,2013-06-18 07:12:00,
2013-06-18 02:22:00,56.0,52.0,30.01,ENE,59,8.0,14.0,85,0.00,,,0.00,,2013-06-18 07:22:00,
2013-06-18 02:33:00,56.0,52.0,30.02,NE,48,6.0,13.0,85,0.00,,,0.00,,2013-06-18 07:33:00,
2013-06-18 02:43:00,56.0,52.0,30.02,NE,45,9.0,13.0,85,0.00,,,0.00,,2013-06-18 07:43:00,
2013-06-18 02:52:00,56.0,52.0,30.02,NE,45,9.0,13.0,85,0.00,,,0.00,,2013-06-18 07:52:00,
2013-06-18 03:02:00,55.0,51.0,30.02,ENE,66,8.0,13.0,85,0.00,,,0.00,,2013-06-18 08:02:00,
2013-06-18 03:11:00,55.0,51.0,30.02,NE,41,6.0,12.0,86,0.00,,,0.00,,2013-06-18 08:11:00,
2013-06-18 03:23:00,55.0,51.0,30.02,NE,41,6.0,12.0,86,0.00,,,0.00,,2013-06-18 08:23:00,
2013-06-18 03:33:00,55.0,51.0,30.02,NE,46,6.0,11.0,86,0.00,,,0.00,,2013-06-18 08:33:00,
2013-06-18 03:43:00,55.0,51.0,30.02,NE,50,7.0,12.0,86,0.00,,,0.00,,2013-06-18 08:43:00,
2013-06-18 03:52:00,55.0,51.0,30.02,NE,50,7.0,12.0,86,0.00,,,0.00,,2013-06-18 08:52:00,
2013-06-18 04:02:00,55.0,51.0,30.02,NE,45,6.0,12.0,87,0.00,,,0.00,,2013-06-18 09:02:00,
2013-06-18 04:12:00,55.0,52.0,30.02,ENE,62,6.0,11.0,88,0.00,,,0.00,,2013-06-18 09:12:00,
2013-06-18 04:22:00,55.0,52.0,30.02,ENE,62,6.0,11.0,88,0.00,,,0.00,,2013-06-18 09:22:00,
2013-06-18 04:34:00,55.0,52.0,30.03,NE,51,6.0,10.0,88,0.00,,,0.00,,2013-06-18 09:34:00,
2013-06-18 04:43:00,56.0,52.0,30.03,NE,55,6.0,12.0,88,0.00,,,0.00,,2013-06-18 09:43:00,
2013-06-18 04:53:00,56.0,52.0,30.03,NE,55,6.0,12.0,88,0.00,,,0.00,,2013-06-18 09:53:00,
2013-06-18 05:02:00,56.0,52.0,30.03,NE,52,7.0,13.0,88,0.00,,,0.00,,2013-06-18 10:02:00,
2013-06-18 05:11:00,56.0,52.0,30.05,NE,45,7.0,11.0,87,0.00,,,0.00,,2013-06-18 10:11:00,
2013-06-18 05:22:00,56.0,52.0,30.05,NE,45,7.0,11.0,87,0.00,,,0.00,,2013-06-18 10:22:00,
2013-06-18 05:33:00,56.0,52.0,30.05,NE,46,4.0,9.0,88,0.00,,,0.00,,2013-06-18 10:33:00,
2013-06-18 05:43:00,56.0,52.0,30.06,NE,41,3.0,9.0,87,0.00,,,0.00,,2013-06-18 10:43:00,
2013-06-18 05:53:00,56.0,52.0,30.06,NE,41,3.0,9.0,87,0.00,,,0.00,,2013-06-18 10:53:00,
2013-06-18 06:02:00,56.0,52.0,30.06,NE,47,5.0,9.0,87,0.00,,,0.00,,2013-06-18 11:02:00,
2013-06-18 06:11:00,56.0,52.0,30.07,NE,37,7.0,10.0,85,0.00,,,0.00,,2013-06-18 11:11:00,
2013-06-18 06:22:00,56.0,52.0,30.07,NE,37,7.0,10.0,85,0.00,,,0.00,,2013-06-18 11:22:00,
2013-06-18 06:32:00,56.0,51.0,30.07,NE,56,8.0,12.0,84,0.00,,,0.00,,2013-06-18 11:32:00,
2013-06-18 06:43:00,56.0,51.0,30.08,NE,46,5.0,10.0,83,0.00,,,0.00,,2013-06-18 11:43:00,
2013-06-18 06:52:00,56.0,51.0,30.08,NE,46,5.0,10.0,83,0.00,,,0.00,,2013-06-18 11:52:00,
2013-06-18 07:01:00,56.0,51.0,30.08,ENE,68,6.0,10.0,83,0.00,,,0.00,,2013-06-18 12:01:00,
2013-06-18 07:11:00,56.0,51.0,30.08,NE,50,5.0,10.0,84,0.00,,,0.00,,2013-06-18 12:11:00,
2013-06-18 07:22:00,56.0,51.0,30.08,NE,50,5.0,10.0,84,0.00,,,0.00,,2013-06-18 12:22:00,
2013-06-18 07:33:00,57.0,52.0,30.08,ENE,74,6.0,10.0,83,0.00,,,0.00,,2013-06-18 12:33:00,
2013-06-18 07:43:00,57.0,52.0,30.08,East,81,6.0,11.0,83,0.00,,,0.00,,2013-06-18 12:43:00,
2013-06-18 07:52:00,57.0,52.0,30.08,East,81,6.0,11.0,83,0.00,,,0.00,,2013-06-18 12:52:00,
2013-06-18 08:02:00,58.0,53.0,30.08,ENE,64,8.0,13.0,83,0.00,,,0.00,,2013-06-18 13:02:00,
2013-06-18 08:12:00,58.0,53.0,30.08,ENE,64,8.0,13.0,83,0.00,,,0.00,,2013-06-18 13:12:00,
2013-06-18 08:22:00,58.0,53.0,30.08,ENE,75,7.0,13.0,83,0.00,,,0.00,,2013-06-18 13:22:00,
2013-06-18 08:33:00,58.0,53.0,30.09,ENE,72,6.0,12.0,82,0.00,,,0.00,,2013-06-18 13:33:00,
2013-06-18 08:43:00,58.0,53.0,30.09,ENE,72,6.0,12.0,82,0.00,,,0.00,,2013-06-18 13:43:00,
2013-06-18 08:53:00,60.0,54.0,30.09,ESE,103,7.0,12.0,80,0.00,,,0.00,,2013-06-18 13:53:00,
2013-06-18 09:02:00,60.0,54.0,30.09,East,92,9.0,13.0,80,0.00,,,0.00,,2013-06-18 14:02:00,
2013-06-18 09:11:00,60.0,54.0,30.09,East,92,9.0,13.0,80,0.00,,,0.00,,2013-06-18 14:11:00,
2013-06-18 09:22:00,60.0,54.0,30.09,ENE,74,11.0,14.0,80,0.00,,,0.00,,2013-06-18 14:22:00,
2013-06-18 09:33:00,60.0,54.0,30.10,East,86,6.0,13.0,80,0.00,,,0.00,,2013-06-18 14:33:00,
2013-06-18 09:43:00,60.0,54.0,30.10,East,86,6.0,13.0,80,0.00,,,0.00,,2013-06-18 14:43:00,
2013-06-18 09:53:00,59.0,52.0,30.10,East,87,10.0,15.0,79,0.00,,,0.00,,2013-06-18 14:53:00,
2013-06-18 10:02:00,60.0,53.0,30.10,East,97,9.0,15.0,77,0.00,,,0.00,,2013-06-18 15:02:00,
2013-06-18 10:11:00,60.0,53.0,30.10,East,97,9.0,15.0,77,0.00,,,0.00,,2013-06-18 15:11:00,
2013-06-18 10:22:00,60.0,52.0,30.10,East,84,12.0,16.0,74,0.00,,,0.00,,2013-06-18 15:22:00,
2013-06-18 10:33:00,61.0,53.0,30.10,NE,51,8.0,14.0,74,0.00,,,0.00,,2013-06-18 15:33:00,
2013-06-18 10:43:00,61.0,53.0,30.10,NE,51,8.0,14.0,74,0.00,,,0.00,,2013-06-18 15:43:00,
2013-06-18 10:53:00,61.0,52.0,30.10,ENE,70,9.0,14.0,71,0.00,,,0.00,,2013-06-18 15:53:00,
2013-06-18 11:01:00,61.0,51.0,30.11,ENE,74,6.0,11.0,69,0.00,,,0.00,,2013-06-18 16:01:00,
2013-06-18 11:11:00,61.0,51.0,30.11,ENE,74,6.0,11.0,69,0.00,,,0.00,,2013-06-18 16:11:00,
2013-06-18 11:22:00,62.0,52.0,30.11,NE,56,4.0,12.0,70,0.00,,,0.00,,2013-06-18 16:22:00,
2013-06-18 11:33:00,63.0,52.0,30.11,ESE,115,5.0,11.0,68,0.00,,,0.00,,2013-06-18 16:33:00,
2013-06-18 11:43:00,63.0,52.0,30.11,ESE,115,5.0,11.0,68,0.00,,,0.00,,2013-06-18 16:43:00,
2013-06-18 11:53:00,65.0,53.0,30.11,East,82,4.0,13.0,64,0.00,,,0.00,,2013-06-18 16:53:00,
2013-06-18 12:02:00,66.0,52.0,30.10,SE,144,4.0,11.0,60,0.00,,,0.00,,2013-06-18 17:02:00,
2013-06-18 12:11:00,66.0,52.0,30.10,SE,144,4.0,11.0,60,0.00,,,0.00,,2013-06-18 17:11:00,
2013-06-18 12:22:00,67.0,53.0,30.10,East,100,5.0,12.0,60,0.00,,,0.00,,2013-06-18 17:22:00,
2013-06-18 12:33:00,68.0,52.0,30.10,East,99,6.0,10.0,57,0.00,,,0.00,,2013-06-18 17:33:00,
2013-06-18 12:43:00,68.0,52.0,30.10,East,99,6.0,10.0,57,0.00,,,0.00,,2013-06-18 17:43:00,
2013-06-18 13:02:00,68.0,52.0,30.10,East,86,4.0,8.0,56,0.00,,,0.00,,2013-06-18 18:02:00,
2013-06-18 13:11:00,68.0,52.0,30.10,East,86,4.0,8.0,56,0.00,,,0.00,,2013-06-18 18:11:00,
2013-06-18 13:22:00,69.0,48.0,30.09,NE,43,6.0,10.0,47,0.00,,,0.00,,2013-06-18 18:22:00,
2013-06-18 13:33:00,70.0,49.0,30.09,East,86,5.0,11.0,48,0.00,,,0.00,,2013-06-18 18:33:00,
2013-06-18 13:42:00,70.0,49.0,30.09,East,86,5.0,11.0,48,0.00,,,0.00,,2013-06-18 18:42:00,
2013-06-18 13:53:00,70.0,45.0,30.09,East,80,3.0,11.0,41,0.00,,,0.00,,2013-06-18 18:53:00,
2013-06-18 14:01:00,70.0,46.0,30.09,SE,142,2.0,10.0,42,0.00,,,0.00,,2013-06-18 19:01:00,
2013-06-18 14:11:00,70.0,46.0,30.09,SE,142,2.0,10.0,42,0.00,,,0.00,,2013-06-18 19:11:00,
2013-06-18 14:22:00,70.0,45.0,30.09,ESE,113,3.0,11.0,40,0.00,,,0.00,,2013-06-18 19:22:00,
2013-06-18 14:33:00,71.0,47.0,30.09,East,88,8.0,12.0,43,0.00,,,0.00,,2013-06-18 19:33:00,
2013-06-18 14:43:00,71.0,47.0,30.09,East,88,8.0,12.0,43,0.00,,,0.00,,2013-06-18 19:43:00,
2013-06-18 14:53:00,71.0,43.0,30.08,ENE,70,3.0,11.0,37,0.00,,,0.00,,2013-06-18 19:53:00,
2013-06-18 15:02:00,72.0,47.0,30.09,East,90,5.0,10.0,41,0.00,,,0.00,,2013-06-18 20:02:00,
2013-06-18 15:11:00,72.0,47.0,30.09,East,90,5.0,10.0,41,0.00,,,0.00,,2013-06-18 20:11:00,
2013-06-18 15:23:00,72.0,48.0,30.09,NNE,31,6.0,10.0,42,0.00,,,0.00,,2013-06-18 20:23:00,
2013-06-18 15:33:00,72.0,46.0,30.08,ENE,78,4.0,12.0,39,0.00,,,0.00,,2013-06-18 20:33:00,
2013-06-18 15:43:00,72.0,46.0,30.08,ENE,78,4.0,12.0,39,0.00,,,0.00,,2013-06-18 20:43:00,
2013-06-18 15:52:00,73.0,47.0,30.08,NE,44,2.0,10.0,39,0.00,,,0.00,,2013-06-18 20:52:00,
2013-06-18 16:01:00,73.0,47.0,30.08,ESE,109,7.0,12.0,39,0.00,,,0.00,,2013-06-18 21:01:00,
2013-06-18 16:11:00,73.0,47.0,30.08,ESE,109,7.0,12.0,39,0.00,,,0.00,,2013-06-18 21:11:00,
2013-06-18 16:23:00,74.0,46.0,30.08,East,99,7.0,9.0,37,0.00,,,0.00,,2013-06-18 21:23:00,
2013-06-18 16:33:00,73.0,44.0,30.07,ENE,72,7.0,11.0,36,0.00,,,0.00,,2013-06-18 21:33:00,
2013-06-18 16:43:00,73.0,44.0,30.07,ENE,72,7.0,11.0,36,0.00,,,0.00,,2013-06-18 21:43:00,
2013-06-18 16:52:00,74.0,45.0,30.07,SE,126,4.0,12.0,36,0.00,,,0.00,,2013-06-18 21:52:00,
2013-06-18 17:01:00,73.0,48.0,30.07,East,94,7.0,11.0,41,0.00,,,0.00,,2013-06-18 22:01:00,
2013-06-18 17:11:00,73.0,48.0,30.07,East,94,7.0,11.0,41,0.00,,,0.00,,2013-06-18 22:11:00,
2013-06-18 17:22:00,73.0,50.0,30.06,ENE,73,2.0,8.0,44,0.00,,,0.00,,2013-06-18 22:22:00,
2013-06-18 17:34:00,74.0,49.0,30.06,East,97,5.0,11.0,41,0.00,,,0.00,,2013-06-18 22:34:00,
2013-06-18 17:43:00,74.0,49.0,30.06,East,97,5.0,11.0,41,0.00,,,0.00,,2013-06-18 22:43:00,
2013-06-18 17:53:00,74.0,49.0,30.05,East,84,7.0,11.0,41,0.00,,,0.00,,2013-06-18 22:53:00,
2013-06-18 18:02:00,74.0,49.0,30.05,East,79,3.0,10.0,42,0.00,,,0.00,,2013-06-18 23:02:00,
2013-06-18 18:11:00,74.0,49.0,30.05,East,79,3.0,10.0,42,0.00,,,0.00,,2013-06-18 23:11:00,
2013-06-18 18:23:00,74.0,48.0,30.05,ENE,72,2.0,9.0,40,0.00,,,0.00,,2013-06-18 23:23:00,
2013-06-18 18:36:00,74.0,49.0,30.04,ENE,64,5.0,8.0,42,0.00,,,0.00,,2013-06-18 23:36:00,
2013-06-18 18:46:00,74.0,49.0,30.04,ENE,64,5.0,8.0,42,0.00,,,0.00,,2013-06-18 23:46:00,
2013-06-18 18:53:00,74.0,51.0,30.04,East,81,3.0,9.0,44,0.00,,,0.00,,2013-06-18 23:53:00,
2013-06-18 19:01:00,73.0,50.0,30.04,East,100,5.0,10.0,44,0.00,,,0.00,,2013-06-19 00:01:00,
2013-06-18 19:11:00,73.0,50.0,30.04,East,100,5.0,10.0,44,0.00,,,0.00,,2013-06-19 00:11:00,
2013-06-18 19:22:00,73.0,50.0,30.03,ENE,72,4.0,9.0,44,0.00,,,0.00,,2013-06-19 00:22:00,
2013-06-18 19:33:00,72.0,52.0,30.04,East,87,4.0,8.0,49,0.00,,,0.00,,2013-06-19 00:33:00,
2013-06-18 19:43:00,72.0,52.0,30.04,East,87,4.0,8.0,49,0.00,,,0.00,,2013-06-19 00:43:00,
2013-06-18 19:53:00,72.0,52.0,30.04,ENE,66,4.0,9.0,50,0.00,,,0.00,,2013-06-19 00:53:00,
2013-06-18 20:01:00,71.0,52.0,30.04,East,86,4.0,7.0,51,0.00,,,0.00,,2013-06-19 01:01:00,
2013-06-18 20:11:00,71.0,52.0,30.04,East,86,4.0,7.0,51,0.00,,,0.00,,2013-06-19 01:11:00,
2013-06-18 20:22:00,71.0,52.0,30.04,East,86,4.0,7.0,51,0.00,,,0.00,,2013-06-19 01:22:00,
2013-06-18 20:32:00,70.0,52.0,30.04,ENE,78,4.0,8.0,52,0.00,,,0.00,,2013-06-19 01:32:00,
2013-06-18 20:42:00,70.0,52.0,30.04,ENE,78,4.0,8.0,52,0.00,,,0.00,,2013-06-19 01:42:00,
2013-06-18 20:53:00,70.0,52.0,30.04,ENE,78,4.0,8.0,52,0.00,,,0.00,,2013-06-19 01:53:00,
2013-06-18 21:01:00,70.0,52.0,30.04,ENE,78,4.0,8.0,52,0.00,,,0.00,,2013-06-19 02:01:00,
2013-06-18 21:11:00,70.0,52.0,30.04,ENE,78,4.0,8.0,52,0.00,,,0.00,,2013-06-19 02:11:00,
2013-06-18 21:21:00,69.0,52.0,30.04,ENE,65,4.0,8.0,55,0.00,,,0.00,,2013-06-19 02:21:00,
2013-06-18 21:32:00,69.0,52.0,30.04,ENE,65,4.0,8.0,55,0.00,,,0.00,,2013-06-19 02:32:00,
2013-06-18 21:42:00,64.0,52.0,30.04,ENE,66,2.0,4.0,66,0.00,,,0.00,,2013-06-19 02:42:00,
2013-06-18 21:52:00,64.0,52.0,30.04,ENE,66,2.0,4.0,66,0.00,,,0.00,,2013-06-19 02:52:00,
2013-06-18 22:01:00,64.0,52.0,30.04,ENE,66,2.0,4.0,66,0.00,,,0.00,,2013-06-19 03:01:00,
2013-06-18 22:11:00,62.0,52.0,30.05,ENE,70,2.0,3.0,70,0.00,,,0.00,,2013-06-19 03:11:00,
2013-06-18 22:22:00,62.0,52.0,30.05,ENE,70,2.0,3.0,70,0.00,,,0.00,,2013-06-19 03:22:00,
2013-06-18 22:33:00,61.0,52.0,30.06,East,80,2.0,3.0,71,0.00,,,0.00,,2013-06-19 03:33:00,
2013-06-18 22:42:00,61.0,52.0,30.06,East,80,2.0,3.0,71,0.00,,,0.00,,2013-06-19 03:42:00,
2013-06-18 22:52:00,60.0,51.0,30.06,East,92,1.0,3.0,72,0.00,,,0.00,,2013-06-19 03:52:00,
2013-06-18 23:01:00,59.0,51.0,30.06,East,87,1.0,3.0,75,0.00,,,0.00,,2013-06-19 04:01:00,
2013-06-18 23:11:00,59.0,51.0,30.06,East,87,1.0,3.0,75,0.00,,,0.00,,2013-06-19 04:11:00,
2013-06-18 23:22:00,59.0,51.0,30.06,East,85,2.0,3.0,76,0.00,,,0.00,,2013-06-19 04:22:00,
2013-06-18 23:32:00,59.0,51.0,30.06,East,85,2.0,3.0,76,0.00,,,0.00,,2013-06-19 04:32:00,
2013-06-18 23:42:00,59.0,51.0,30.06,East,85,2.0,3.0,76,0.00,,,0.00,,2013-06-19 04:42:00,
2013-06-18 23:53:00,59.0,51.0,30.06,East,85,2.0,3.0,76,0.00,,,0.00,,2013-06-19 04:53:00,